| time (UTC) | temp F | wind direction | speed knots | gust knots | rain 1hr in | rain 24hr in | rain mn in | humidity % | barometer mb |
| 20260510094919 | 47 | 191 | 0.0 | 0.0 | 0.00 | 0.00 | 0.00 | 99 | 1014.3 |
| 20260510094414 | 47 | 191 | 0.9 | 0.9 | 0.00 | 0.00 | 0.00 | 99 | 1014.5 |
| 20260510093911 | 47 | 191 | 0.0 | 0.0 | 0.00 | 0.00 | 0.00 | 99 | 1014.4 |
| 20260510093406 | 47 | 191 | 0.0 | 0.0 | 0.00 | 0.00 | 0.00 | 99 | 1014.4 |
| 20260510092903 | 48 | 191 | 0.0 | 0.0 | 0.00 | 0.00 | 0.00 | 99 | 1014.2 |
| 20260510092400 | 48 | 191 | 0.0 | 0.0 | 0.00 | 0.00 | 0.00 | 99 | 1014.2 |
| 20260510091855 | 48 | 191 | 0.0 | 0.0 | 0.00 | 0.00 | 0.00 | 98 | 1014.1 |
| 20260510091352 | 48 | 191 | 0.0 | 0.0 | 0.00 | 0.00 | 0.00 | 98 | 1014.0 |
| 20260510090849 | 48 | 191 | 0.0 | 0.0 | 0.00 | 0.00 | 0.00 | 98 | 1014.1 |
| 20260510090345 | 48 | 191 | 0.0 | 0.9 | 0.00 | 0.00 | 0.00 | 98 | 1014.0 |
| 20260510085841 | 48 | 191 | 0.0 | 0.9 | 0.00 | 0.00 | 0.00 | 98 | 1014.1 |
| 20260510085336 | 49 | 191 | 0.0 | 0.0 | 0.00 | 0.00 | 0.00 | 98 | 1014.0 |
| 20260510084832 | 48 | 191 | 0.9 | 1.7 | 0.00 | 0.00 | 0.00 | 98 | 1013.8 |
| 20260510084330 | 48 | 201 | 0.0 | 0.0 | 0.00 | 0.00 | 0.00 | 98 | 1013.9 |
| 20260510083826 | 49 | 201 | 0.0 | 0.0 | 0.00 | 0.00 | 0.00 | 98 | 1013.8 |
| 20260510083322 | 49 | 201 | 0.0 | 0.0 | 0.00 | 0.00 | 0.00 | 98 | 1013.7 |
| 20260510082818 | 48 | 260 | 0.0 | 0.0 | 0.00 | 0.00 | 0.00 | 98 | 1013.6 |
| 20260510082316 | 49 | 260 | 0.0 | 0.0 | 0.00 | 0.00 | 0.00 | 98 | 1013.8 |
| 20260510081814 | 49 | 262 | 0.0 | 0.0 | 0.00 | 0.00 | 0.00 | 98 | 1013.7 |
| 20260510081310 | 49 | 262 | 0.0 | 0.0 | 0.00 | 0.00 | 0.00 | 98 | 1013.6 |
| 20260510080806 | 49 | 262 | 0.0 | 0.0 | 0.00 | 0.00 | 0.00 | 97 | 1013.7 |
| 20260510080301 | 49 | 262 | 0.0 | 0.0 | 0.00 | 0.00 | 0.00 | 97 | 1013.7 |
| 20260510075758 | 49 | 262 | 0.0 | 0.0 | 0.00 | 0.00 | 0.00 | 97 | 1013.6 |
| 20260510075256 | 49 | 262 | 0.0 | 0.0 | 0.00 | 0.00 | 0.00 | 97 | 1013.5 |
| 20260510074753 | 49 | 262 | 0.0 | 0.9 | 0.00 | 0.00 | 0.00 | 97 | 1013.5 |
| 20260510074249 | 49 | 262 | 0.0 | 0.0 | 0.00 | 0.00 | 0.00 | 97 | 1013.5 |
| 20260510073745 | 49 | 262 | 0.0 | 0.9 | 0.00 | 0.00 | 0.00 | 97 | 1013.4 |
| 20260510073241 | 50 | 262 | 0.0 | 0.0 | 0.00 | 0.00 | 0.00 | 96 | 1013.6 |
| 20260510072737 | 50 | 262 | 0.9 | 0.9 | 0.00 | 0.00 | 0.00 | 96 | 1013.6 |
| 20260510072234 | 50 | 263 | 0.0 | 0.0 | 0.00 | 0.00 | 0.00 | 96 | 1013.6 |
| 20260510071731 | 50 | 263 | 0.0 | 0.0 | 0.00 | 0.00 | 0.00 | 96 | 1013.6 |
| 20260510071227 | 50 | 263 | 0.0 | 0.0 | 0.00 | 0.00 | 0.00 | 95 | 1013.7 |
| 20260510070726 | 51 | 263 | 0.0 | 0.0 | 0.00 | 0.00 | 0.00 | 95 | 1013.7 |
| 20260510070223 | 51 | 263 | 0.0 | 0.0 | 0.00 | 0.00 | 0.00 | 94 | 1013.5 |
| 20260510065717 | 51 | 263 | 0.0 | 0.0 | 0.00 | 0.00 | 0.00 | 94 | 1013.5 |
| 20260510065214 | 51 | 263 | 0.0 | 0.0 | 0.00 | 0.00 | 0.00 | 93 | 1013.7 |
| 20260510064710 | 52 | 263 | 0.0 | 0.0 | 0.00 | 0.00 | 0.00 | 92 | 1013.6 |
| 20260510064208 | 52 | 263 | 0.0 | 0.0 | 0.00 | 0.00 | 0.00 | 92 | 1013.7 |
| 20260510063705 | 53 | 263 | 0.0 | 0.0 | 0.00 | 0.00 | 0.00 | 91 | 1013.7 |
| 20260510063201 | 53 | 263 | 0.0 | 0.0 | 0.00 | 0.00 | 0.00 | 90 | 1013.8 |
| 20260510062657 | 54 | 263 | 0.0 | 0.9 | 0.00 | 0.00 | 0.00 | 88 | 1013.7 |
| 20260510062153 | 54 | 238 | 0.0 | 0.0 | 0.00 | 0.00 | 0.00 | 88 | 1013.7 |
| 20260510061648 | 55 | 238 | 0.0 | 0.0 | 0.00 | 0.00 | 0.00 | 86 | 1013.8 |
| 20260510061146 | 55 | 238 | 0.9 | 1.7 | 0.00 | 0.00 | 0.00 | 87 | 1013.8 |
| 20260510060642 | 55 | 238 | 0.0 | 0.0 | 0.00 | 0.00 | 0.00 | 88 | 1013.7 |
| 20260510060139 | 54 | 149 | 0.0 | 0.0 | 0.00 | 0.00 | 0.00 | 89 | 1013.7 |
| 20260510055635 | 55 | 149 | 0.0 | 0.0 | 0.00 | 0.00 | 0.00 | 88 | 1013.7 |
| 20260510055134 | 54 | 217 | 0.0 | 0.0 | 0.00 | 0.00 | 0.00 | 89 | 1013.8 |
| 20260510054629 | 54 | 218 | 0.0 | 0.0 | 0.00 | 0.00 | 0.00 | 88 | 1013.8 |
| 20260510054125 | 55 | 229 | 0.0 | 0.0 | 0.00 | 0.00 | 0.00 | 87 | 1013.7 |
| 20260510053624 | 55 | 243 | 0.0 | 0.0 | 0.00 | 0.00 | 0.00 | 86 | 1014.0 |
| 20260510053121 | 56 | 249 | 0.0 | 1.7 | 0.00 | 0.00 | 0.00 | 86 | 1014.0 |
| 20260510052617 | 57 | 284 | 0.0 | 0.0 | 0.00 | 0.00 | 0.00 | 84 | 1014.0 |
| 20260510052114 | 58 | 285 | 0.0 | 0.9 | 0.00 | 0.00 | 0.00 | 82 | 1014.0 |
| 20260510051609 | 58 | 233 | 0.0 | 0.0 | 0.00 | 0.00 | 0.00 | 81 | 1014.0 |
| 20260510051106 | 57 | 233 | 0.0 | 0.9 | 0.00 | 0.00 | 0.00 | 82 | 1014.1 |
| 20260510050603 | 57 | 233 | 0.0 | 0.0 | 0.00 | 0.00 | 0.00 | 84 | 1014.1 |
| 20260510050100 | 57 | 233 | 0.9 | 2.6 | 0.00 | 0.00 | 0.00 | 83 | 1014.1 |
| 20260510045557 | 56 | 242 | 0.9 | 1.7 | 0.00 | 0.00 | 0.00 | 86 | 1013.9 |
| 20260510045053 | 55 | 242 | 0.0 | 0.9 | 0.00 | 0.00 | 0.00 | 86 | 1013.8 |
| 20260510044550 | 56 | 249 | 0.0 | 0.9 | 0.00 | 0.00 | 0.00 | 86 | 1013.8 |
| 20260510044048 | 54 | 249 | 0.0 | 3.5 | 0.00 | 0.00 | 0.00 | 88 | 1014.0 |
| 20260510043543 | 53 | 159 | 0.0 | 0.0 | 0.00 | 0.00 | 0.00 | 92 | 1013.9 |
| 20260510043039 | 53 | 159 | 0.0 | 0.0 | 0.00 | 0.00 | 0.00 | 91 | 1013.7 |
| 20260510042538 | 53 | 154 | 0.0 | 0.0 | 0.00 | 0.00 | 0.00 | 92 | 1013.7 |
| 20260510042033 | 52 | 154 | 0.0 | 0.0 | 0.00 | 0.00 | 0.00 | 92 | 1013.7 |
| 20260510041531 | 53 | 154 | 0.0 | 0.0 | 0.00 | 0.00 | 0.00 | 91 | 1013.8 |
| 20260510041028 | 53 | 155 | 0.0 | 0.0 | 0.00 | 0.00 | 0.00 | 91 | 1013.7 |
| 20260510040525 | 53 | 200 | 0.0 | 0.9 | 0.00 | 0.00 | 0.00 | 91 | 1013.6 |
| 20260510040021 | 52 | 261 | 0.0 | 0.0 | 0.00 | 0.01 | 0.01 | 93 | 1013.7 |
| 20260510035518 | 52 | 261 | 0.0 | 0.0 | 0.00 | 0.01 | 0.01 | 93 | 1013.7 |
| 20260510035016 | 52 | 261 | 0.0 | 0.9 | 0.00 | 0.01 | 0.01 | 94 | 1013.7 |
| 20260510034516 | 52 | 261 | 0.0 | 0.0 | 0.00 | 0.01 | 0.01 | 94 | 1013.4 |
| 20260510034012 | 50 | 204 | 0.0 | 0.0 | 0.00 | 0.01 | 0.01 | 96 | 1013.4 |
| 20260510033508 | 50 | 204 | 0.0 | 0.0 | 0.00 | 0.01 | 0.01 | 96 | 1013.4 |
| 20260510033007 | 50 | 204 | 0.0 | 0.0 | 0.00 | 0.01 | 0.01 | 96 | 1013.4 |
| 20260510032503 | 50 | 204 | 0.0 | 0.9 | 0.00 | 0.01 | 0.01 | 96 | 1013.3 |
| 20260510032003 | 50 | 204 | 0.0 | 0.0 | 0.00 | 0.01 | 0.01 | 96 | 1013.2 |
| 20260510031458 | 50 | 204 | 0.0 | 0.9 | 0.00 | 0.01 | 0.01 | 96 | 1013.3 |
| 20260510030954 | 50 | 204 | 0.0 | 0.0 | 0.00 | 0.01 | 0.01 | 96 | 1013.2 |
| 20260510030449 | 50 | 204 | 0.0 | 0.0 | 0.00 | 0.01 | 0.01 | 96 | 1013.1 |
| 20260510025947 | 50 | 204 | 0.0 | 0.0 | 0.00 | 0.01 | 0.01 | 96 | 1013.1 |
| 20260510025444 | 50 | 204 | 0.0 | 0.0 | 0.00 | 0.01 | 0.01 | 96 | 1013.3 |
| 20260510024942 | 50 | 204 | 0.9 | 0.9 | 0.00 | 0.01 | 0.01 | 95 | 1013.1 |
| 20260510024438 | 51 | 204 | 0.0 | 0.0 | 0.00 | 0.01 | 0.01 | 95 | 1013.2 |
| 20260510023934 | 51 | 204 | 0.0 | 0.0 | 0.00 | 0.01 | 0.01 | 95 | 1013.2 |
| 20260510023431 | 51 | 204 | 0.0 | 0.0 | 0.00 | 0.01 | 0.01 | 95 | 1013.2 |
| 20260510022928 | 51 | 204 | 0.0 | 0.0 | 0.00 | 0.01 | 0.01 | 95 | 1013.1 |
| 20260510022427 | 51 | 204 | 0.0 | 0.9 | 0.00 | 0.01 | 0.01 | 94 | 1012.9 |
| 20260510021926 | 51 | 204 | 0.0 | 0.0 | 0.00 | 0.01 | 0.01 | 93 | 1012.9 |
| 20260510021424 | 52 | 204 | 0.0 | 0.0 | 0.00 | 0.01 | 0.01 | 93 | 1012.9 |
| 20260510020920 | 52 | 204 | 0.0 | 0.9 | 0.00 | 0.01 | 0.01 | 93 | 1012.8 |
| 20260510020415 | 52 | 204 | 0.0 | 0.9 | 0.00 | 0.01 | 0.01 | 93 | 1012.9 |
| 20260510015911 | 52 | 204 | 0.9 | 0.9 | 0.00 | 0.01 | 0.01 | 92 | 1012.8 |
| 20260510015407 | 53 | 204 | 0.0 | 0.9 | 0.00 | 0.01 | 0.01 | 91 | 1012.8 |
| 20260510014908 | 53 | 204 | 0.0 | 0.0 | 0.00 | 0.01 | 0.01 | 91 | 1012.3 |
| 20260510014406 | 53 | 204 | 0.0 | 0.9 | 0.00 | 0.01 | 0.01 | 90 | 1012.2 |
| 20260510013902 | 54 | 204 | 0.0 | 0.9 | 0.00 | 0.01 | 0.01 | 90 | 1012.1 |
| 20260510013357 | 54 | 204 | 0.0 | 0.9 | 0.00 | 0.01 | 0.01 | 88 | 1012.0 |
| 20260510012852 | 55 | 204 | 0.0 | 0.0 | 0.00 | 0.01 | 0.01 | 88 | 1012.2 |
| 20260510012347 | 55 | 204 | 0.0 | 0.0 | 0.00 | 0.01 | 0.01 | 87 | 1012.1 |
| 20260510011842 | 55 | 204 | 0.0 | 0.0 | 0.00 | 0.01 | 0.01 | 86 | 1012.1 |
| 20260510011337 | 55 | 204 | 0.0 | 0.0 | 0.00 | 0.01 | 0.01 | 85 | 1012.0 |
| 20260510010834 | 56 | 204 | 0.0 | 0.0 | 0.00 | 0.01 | 0.01 | 84 | 1011.9 |
| 20260510010331 | 56 | 204 | 0.0 | 0.0 | 0.00 | 0.01 | 0.01 | 83 | 1011.9 |
| 20260510005828 | 58 | 204 | 0.9 | 0.9 | 0.00 | 0.01 | 0.01 | 81 | 1011.8 |
| 20260510005324 | 59 | 204 | 0.9 | 0.9 | 0.00 | 0.01 | 0.01 | 78 | 1011.9 |
| 20260510004822 | 60 | 205 | 0.0 | 0.9 | 0.00 | 0.01 | 0.01 | 74 | 1011.7 |
| 20260510004319 | 61 | 205 | 0.0 | 0.9 | 0.00 | 0.01 | 0.01 | 71 | 1011.7 |
| 20260510003817 | 62 | 228 | 0.0 | 0.9 | 0.00 | 0.01 | 0.01 | 68 | 1011.7 |
| 20260510003314 | 63 | 244 | 0.0 | 0.9 | 0.00 | 0.01 | 0.01 | 67 | 1011.5 |
| 20260510002812 | 64 | 245 | 0.0 | 0.9 | 0.00 | 0.01 | 0.01 | 65 | 1011.6 |
| 20260510002310 | 64 | 241 | 0.0 | 0.9 | 0.00 | 0.01 | 0.01 | 65 | 1011.4 |
| 20260510001806 | 64 | 266 | 0.0 | 0.0 | 0.00 | 0.01 | 0.01 | 65 | 1011.3 |
| 20260510001305 | 65 | 265 | 0.0 | 1.7 | 0.00 | 0.01 | 0.01 | 64 | 1011.2 |
| 20260510000800 | 65 | 266 | 0.9 | 1.7 | 0.00 | 0.01 | 0.01 | 62 | 1011.4 |
| 20260510000258 | 65 | 244 | 0.0 | 0.9 | 0.00 | 0.01 | 0.01 | 62 | 1011.3 |
| 20260509235755 | 66 | 269 | 0.9 | 2.6 | 0.00 | 0.01 | 0.01 | 61 | 1011.1 |
| 20260509235251 | 66 | 260 | 1.7 | 2.6 | 0.00 | 0.01 | 0.01 | 61 | 1011.1 |
| 20260509234747 | 66 | 260 | 1.7 | 3.5 | 0.00 | 0.01 | 0.01 | 60 | 1011.0 |
| 20260509234244 | 66 | 263 | 3.5 | 3.5 | 0.00 | 0.01 | 0.01 | 60 | 1011.0 |
| 20260509233742 | 66 | 279 | 1.7 | 6.1 | 0.00 | 0.01 | 0.01 | 60 | 1011.1 |
| 20260509233240 | 66 | 275 | 4.3 | 5.2 | 0.00 | 0.01 | 0.01 | 59 | 1011.1 |
| 20260509232735 | 66 | 229 | 2.6 | 3.5 | 0.00 | 0.01 | 0.01 | 60 | 1010.9 |
| 20260509232233 | 66 | 248 | 3.5 | 5.2 | 0.00 | 0.01 | 0.01 | 60 | 1010.9 |
| 20260509231729 | 66 | 271 | 1.7 | 2.6 | 0.00 | 0.01 | 0.01 | 60 | 1011.0 |
| 20260509231226 | 66 | 276 | 2.6 | 3.5 | 0.00 | 0.01 | 0.01 | 59 | 1011.0 |
| 20260509230724 | 66 | 243 | 1.7 | 6.1 | 0.00 | 0.01 | 0.01 | 60 | 1011.0 |
| 20260509230221 | 67 | 262 | 3.5 | 6.1 | 0.00 | 0.01 | 0.01 | 58 | 1010.9 |
| 20260509225716 | 67 | 272 | 1.7 | 2.6 | 0.00 | 0.01 | 0.01 | 58 | 1011.0 |
| 20260509225212 | 68 | 240 | 0.9 | 5.2 | 0.00 | 0.01 | 0.01 | 59 | 1011.1 |
| 20260509224708 | 68 | 228 | 2.6 | 13.0 | 0.00 | 0.01 | 0.01 | 57 | 1011.2 |
| 20260509224206 | 68 | 252 | 0.9 | 5.2 | 0.00 | 0.01 | 0.01 | 59 | 1011.3 |
| 20260509223703 | 69 | 267 | 3.5 | 5.2 | 0.00 | 0.01 | 0.01 | 55 | 1011.3 |
| 20260509223159 | 69 | 260 | 1.7 | 7.0 | 0.00 | 0.01 | 0.01 | 55 | 1011.2 |
| 20260509222656 | 69 | 216 | 1.7 | 3.5 | 0.00 | 0.01 | 0.01 | 55 | 1011.2 |
| 20260509222151 | 70 | 292 | 3.5 | 6.1 | 0.00 | 0.01 | 0.01 | 53 | 1011.2 |
| 20260509221647 | 69 | 309 | 0.9 | 8.7 | 0.00 | 0.01 | 0.01 | 56 | 1011.1 |
| 20260509221143 | 69 | 276 | 3.5 | 5.2 | 0.00 | 0.01 | 0.01 | 55 | 1011.3 |
| 20260509220639 | 70 | 288 | 6.1 | 7.0 | 0.00 | 0.01 | 0.01 | 52 | 1011.2 |
| 20260509220135 | 71 | 265 | 0.0 | 1.7 | 0.00 | 0.01 | 0.01 | 55 | 1011.4 |
| 20260509215632 | 70 | 281 | 5.2 | 7.0 | 0.00 | 0.01 | 0.01 | 55 | 1011.4 |
| 20260509215128 | 69 | 228 | 2.6 | 5.2 | 0.00 | 0.01 | 0.01 | 54 | 1011.4 |
| 20260509214626 | 69 | 263 | 4.3 | 6.1 | 0.00 | 0.01 | 0.01 | 55 | 1011.4 |
| 20260509214122 | 70 | 294 | 4.3 | 7.0 | 0.00 | 0.01 | 0.01 | 53 | 1011.4 |
| 20260509213619 | 69 | 290 | 1.7 | 2.6 | 0.00 | 0.01 | 0.01 | 55 | 1011.3 |
| 20260509213115 | 70 | 298 | 2.6 | 3.5 | 0.00 | 0.01 | 0.01 | 55 | 1011.5 |
| 20260509212613 | 70 | 282 | 2.6 | 3.5 | 0.00 | 0.01 | 0.01 | 55 | 1011.5 |
| 20260509212110 | 70 | 233 | 1.7 | 3.5 | 0.00 | 0.01 | 0.01 | 57 | 1011.4 |
| 20260509211605 | 68 | 7 | 0.9 | 7.8 | 0.00 | 0.01 | 0.01 | 56 | 1011.4 |
| 20260509211102 | 68 | 275 | 1.7 | 3.5 | 0.00 | 0.01 | 0.01 | 57 | 1011.5 |
| 20260509210559 | 68 | 230 | 1.7 | 6.1 | 0.00 | 0.01 | 0.01 | 59 | 1011.4 |
| 20260509210056 | 67 | 256 | 3.5 | 5.2 | 0.00 | 0.01 | 0.01 | 58 | 1011.6 |
| 20260509205550 | 67 | 300 | 2.6 | 7.0 | 0.00 | 0.01 | 0.01 | 59 | 1011.6 |
| 20260509205045 | 67 | 231 | 1.7 | 6.1 | 0.00 | 0.01 | 0.01 | 59 | 1011.2 |
| 20260509204542 | 68 | 229 | 4.3 | 5.2 | 0.00 | 0.01 | 0.01 | 55 | 1011.5 |
| 20260509204038 | 67 | 4 | 0.9 | 1.7 | 0.00 | 0.01 | 0.01 | 59 | 1011.4 |
| 20260509203534 | 68 | 252 | 4.3 | 7.0 | 0.00 | 0.01 | 0.01 | 57 | 1011.4 |
| 20260509203033 | 68 | 289 | 0.9 | 3.5 | 0.00 | 0.01 | 0.01 | 60 | 1011.4 |
| 20260509202532 | 68 | 275 | 0.0 | 3.5 | 0.00 | 0.01 | 0.01 | 58 | 1011.6 |
| 20260509202028 | 68 | 271 | 0.0 | 2.6 | 0.00 | 0.01 | 0.01 | 58 | 1011.4 |
| 20260509201523 | 67 | 272 | 3.5 | 5.2 | 0.00 | 0.01 | 0.01 | 57 | 1011.5 |
| 20260509201021 | 68 | 218 | 3.5 | 7.0 | 0.00 | 0.01 | 0.01 | 55 | 1011.5 |
| 20260509200521 | 68 | 263 | 2.6 | 7.0 | 0.00 | 0.01 | 0.01 | 57 | 1011.6 |
| 20260509200018 | 68 | 204 | 5.2 | 7.0 | 0.00 | 0.01 | 0.01 | 55 | 1011.6 |
| 20260509195514 | 69 | 250 | 3.5 | 7.0 | 0.00 | 0.01 | 0.01 | 54 | 1011.8 |
| 20260509195013 | 69 | 228 | 2.6 | 3.5 | 0.00 | 0.01 | 0.01 | 53 | 1011.6 |
| 20260509194509 | 67 | 243 | 0.9 | 2.6 | 0.00 | 0.01 | 0.01 | 58 | 1011.7 |
| 20260509194007 | 66 | 290 | 1.7 | 7.0 | 0.00 | 0.01 | 0.01 | 58 | 1012.0 |
| 20260509193506 | 69 | 217 | 3.5 | 5.2 | 0.00 | 0.01 | 0.01 | 55 | 1011.7 |
| 20260509193003 | 67 | 254 | 1.7 | 7.0 | 0.00 | 0.01 | 0.01 | 57 | 1011.7 |
| 20260509192459 | 69 | 260 | 2.6 | 3.5 | 0.00 | 0.01 | 0.01 | 56 | 1011.8 |
| 20260509191954 | 68 | 237 | 1.7 | 6.1 | 0.00 | 0.01 | 0.01 | 55 | 1011.7 |
| 20260509191450 | 69 | 226 | 1.7 | 3.5 | 0.00 | 0.01 | 0.01 | 56 | 1011.6 |
| 20260509190946 | 67 | 296 | 3.5 | 5.2 | 0.00 | 0.01 | 0.01 | 57 | 1011.6 |
| 20260509190443 | 67 | 220 | 2.6 | 7.0 | 0.00 | 0.01 | 0.01 | 57 | 1011.7 |
| 20260509185941 | 67 | 252 | 1.7 | 7.8 | 0.00 | 0.01 | 0.01 | 57 | 1011.7 |
| 20260509185438 | 66 | 240 | 1.7 | 3.5 | 0.00 | 0.01 | 0.01 | 58 | 1011.6 |
| 20260509184934 | 67 | 238 | 1.7 | 7.8 | 0.00 | 0.01 | 0.01 | 59 | 1011.8 |
| 20260509184432 | 67 | 170 | 0.9 | 1.7 | 0.00 | 0.01 | 0.01 | 57 | 1011.8 |
| 20260509183928 | 66 | 274 | 0.9 | 2.6 | 0.00 | 0.01 | 0.01 | 57 | 1011.8 |
| 20260509183423 | 67 | 247 | 1.7 | 3.5 | 0.00 | 0.01 | 0.01 | 55 | 1011.8 |
| 20260509182920 | 66 | 272 | 0.9 | 1.7 | 0.00 | 0.01 | 0.01 | 58 | 1011.7 |
| 20260509182416 | 67 | 245 | 3.5 | 6.1 | 0.00 | 0.01 | 0.01 | 55 | 1011.7 |
| 20260509181914 | 67 | 308 | 0.0 | 1.7 | 0.00 | 0.01 | 0.01 | 60 | 1011.7 |
| 20260509181411 | 66 | 286 | 3.5 | 3.5 | 0.00 | 0.01 | 0.01 | 57 | 1011.8 |
| 20260509180908 | 67 | 249 | 2.6 | 5.2 | 0.00 | 0.01 | 0.01 | 55 | 1011.8 |
| 20260509180404 | 68 | 158 | 0.0 | 2.6 | 0.00 | 0.01 | 0.01 | 57 | 1011.5 |
| 20260509175901 | 66 | 204 | 0.9 | 1.7 | 0.00 | 0.01 | 0.01 | 60 | 1011.6 |
| 20260509175357 | 65 | 266 | 0.9 | 2.6 | 0.00 | 0.01 | 0.01 | 60 | 1011.7 |
| 20260509174853 | 64 | 195 | 2.6 | 5.2 | 0.00 | 0.01 | 0.01 | 58 | 1011.7 |
| 20260509174350 | 64 | 320 | 0.0 | 2.6 | 0.00 | 0.01 | 0.01 | 59 | 1011.9 |
| 20260509173845 | 64 | 264 | 1.7 | 2.6 | 0.00 | 0.01 | 0.01 | 60 | 1012.0 |
| 20260509173341 | 64 | 238 | 1.7 | 3.5 | 0.00 | 0.01 | 0.01 | 59 | 1012.1 |
| 20260509172837 | 64 | 290 | 0.9 | 1.7 | 0.00 | 0.01 | 0.01 | 58 | 1012.0 |
| 20260509172334 | 64 | 265 | 0.9 | 3.5 | 0.00 | 0.01 | 0.01 | 61 | 1012.2 |
| 20260509171830 | 63 | 153 | 0.0 | 1.7 | 0.00 | 0.01 | 0.01 | 59 | 1012.1 |
| 20260509171325 | 63 | 268 | 2.6 | 2.6 | 0.00 | 0.01 | 0.01 | 60 | 1012.1 |
| 20260509170822 | 63 | 227 | 2.6 | 5.2 | 0.00 | 0.01 | 0.01 | 60 | 1012.2 |
| 20260509170318 | 64 | 252 | 1.7 | 2.6 | 0.00 | 0.01 | 0.01 | 64 | 1012.2 |
| 20260509165818 | 63 | 245 | 0.0 | 3.5 | 0.00 | 0.01 | 0.01 | 65 | 1012.1 |
| 20260509165313 | 63 | 231 | 0.0 | 1.7 | 0.00 | 0.01 | 0.01 | 68 | 1012.2 |
| 20260509164809 | 62 | 251 | 2.6 | 2.6 | 0.00 | 0.01 | 0.01 | 66 | 1012.0 |
| 20260509164305 | 62 | 250 | 1.7 | 3.5 | 0.00 | 0.01 | 0.01 | 67 | 1012.2 |
| 20260509163802 | 62 | 130 | 1.7 | 2.6 | 0.00 | 0.01 | 0.01 | 67 | 1012.2 |
| 20260509163259 | 62 | 154 | 0.0 | 1.7 | 0.00 | 0.01 | 0.01 | 68 | 1012.2 |
| 20260509162758 | 61 | 153 | 0.0 | 0.9 | 0.00 | 0.01 | 0.01 | 68 | 1012.1 |
| 20260509162256 | 62 | 250 | 0.9 | 0.9 | 0.00 | 0.01 | 0.01 | 67 | 1012.3 |
| 20260509161753 | 61 | 249 | 0.0 | 0.9 | 0.00 | 0.01 | 0.01 | 68 | 1011.9 |
| 20260509161248 | 61 | 221 | 0.9 | 0.9 | 0.00 | 0.01 | 0.01 | 69 | 1012.1 |
| 20260509160744 | 61 | 127 | 0.0 | 1.7 | 0.00 | 0.01 | 0.01 | 68 | 1012.3 |
| 20260509160241 | 60 | 105 | 0.0 | 0.0 | 0.00 | 0.01 | 0.01 | 69 | 1012.3 |
| 20260509155736 | 60 | 105 | 1.7 | 2.6 | 0.00 | 0.01 | 0.01 | 70 | 1012.3 |
| 20260509155233 | 60 | 225 | 0.9 | 0.9 | 0.00 | 0.01 | 0.01 | 69 | 1012.2 |
| 20260509154729 | 60 | 84 | 1.7 | 2.6 | 0.00 | 0.01 | 0.01 | 71 | 1012.3 |
| 20260509154226 | 60 | 146 | 0.0 | 0.9 | 0.00 | 0.01 | 0.01 | 73 | 1012.3 |
| 20260509153724 | 60 | 204 | 0.0 | 0.9 | 0.00 | 0.01 | 0.01 | 73 | 1012.3 |
| 20260509153219 | 60 | 90 | 2.6 | 2.6 | 0.00 | 0.01 | 0.01 | 74 | 1012.1 |
| 20260509152716 | 60 | 225 | 1.7 | 2.6 | 0.00 | 0.01 | 0.01 | 72 | 1012.2 |
| 20260509152212 | 60 | 249 | 3.5 | 5.2 | 0.00 | 0.01 | 0.01 | 72 | 1012.6 |
| 20260509151709 | 60 | 134 | 1.7 | 5.2 | 0.00 | 0.01 | 0.01 | 75 | 1012.5 |
| 20260509151206 | 60 | 137 | 0.0 | 2.6 | 0.00 | 0.01 | 0.01 | 75 | 1012.7 |
| 20260509150704 | 59 | 177 | 0.9 | 1.7 | 0.00 | 0.01 | 0.01 | 74 | 1012.5 |
| 20260509150202 | 59 | 120 | 1.7 | 2.6 | 0.00 | 0.01 | 0.01 | 75 | 1012.8 |
| 20260509145658 | 59 | 279 | 0.0 | 1.7 | 0.00 | 0.01 | 0.01 | 74 | 1012.9 |
| 20260509145153 | 58 | 279 | 0.0 | 1.7 | 0.00 | 0.01 | 0.01 | 75 | 1012.9 |
| 20260509144650 | 58 | 142 | 1.7 | 1.7 | 0.00 | 0.01 | 0.01 | 76 | 1012.6 |
| 20260509144148 | 58 | 139 | 0.0 | 1.7 | 0.00 | 0.01 | 0.01 | 77 | 1012.6 |
| 20260509143644 | 58 | 151 | 0.0 | 0.9 | 0.00 | 0.01 | 0.01 | 74 | 1012.6 |
| 20260509143142 | 58 | 202 | 0.0 | 0.0 | 0.00 | 0.01 | 0.01 | 78 | 1012.7 |
| 20260509142637 | 58 | 202 | 1.7 | 1.7 | 0.00 | 0.01 | 0.01 | 77 | 1012.8 |
| 20260509142134 | 59 | 123 | 0.0 | 1.7 | 0.00 | 0.01 | 0.01 | 76 | 1012.8 |
| 20260509141630 | 58 | 123 | 0.9 | 1.7 | 0.00 | 0.01 | 0.01 | 80 | 1012.6 |
| 20260509141126 | 58 | 115 | 0.0 | 1.7 | 0.00 | 0.01 | 0.01 | 81 | 1012.5 |
| 20260509140624 | 57 | 115 | 0.0 | 1.7 | 0.00 | 0.01 | 0.01 | 81 | 1012.5 |
| 20260509140122 | 57 | 123 | 0.9 | 2.6 | 0.00 | 0.01 | 0.01 | 81 | 1012.6 |
| 20260509135619 | 57 | 179 | 0.0 | 0.0 | 0.00 | 0.01 | 0.01 | 83 | 1012.8 |
| 20260509135117 | 57 | 179 | 0.0 | 0.0 | 0.00 | 0.01 | 0.01 | 88 | 1012.8 |
| 20260509134613 | 56 | 179 | 0.0 | 0.0 | 0.00 | 0.01 | 0.01 | 86 | 1012.9 |
| 20260509134110 | 56 | 179 | 0.9 | 1.7 | 0.00 | 0.01 | 0.01 | 88 | 1012.8 |
| 20260509133607 | 55 | 179 | 0.0 | 1.7 | 0.00 | 0.01 | 0.01 | 88 | 1012.8 |
| 20260509133104 | 56 | 187 | 0.0 | 0.0 | 0.00 | 0.01 | 0.01 | 89 | 1013.0 |
| 20260509132603 | 55 | 187 | 0.0 | 0.0 | 0.00 | 0.01 | 0.01 | 88 | 1013.3 |
| 20260509132101 | 55 | 187 | 0.0 | 0.0 | 0.00 | 0.01 | 0.01 | 87 | 1013.1 |
| 20260509131556 | 55 | 187 | 0.0 | 0.0 | 0.00 | 0.01 | 0.01 | 87 | 1013.3 |
| 20260509131054 | 55 | 187 | 0.0 | 0.0 | 0.00 | 0.01 | 0.01 | 87 | 1013.4 |
| 20260509130549 | 55 | 187 | 0.0 | 0.0 | 0.00 | 0.01 | 0.01 | 89 | 1013.3 |
| 20260509130046 | 55 | 187 | 0.0 | 0.0 | 0.00 | 0.01 | 0.01 | 89 | 1013.4 |
| 20260509125542 | 54 | 187 | 0.0 | 0.0 | 0.00 | 0.01 | 0.01 | 89 | 1013.3 |
| 20260509125039 | 54 | 187 | 0.0 | 0.0 | 0.00 | 0.01 | 0.01 | 90 | 1013.2 |
| 20260509124536 | 54 | 187 | 0.0 | 0.0 | 0.00 | 0.01 | 0.01 | 93 | 1013.1 |
| 20260509124033 | 53 | 187 | 0.0 | 0.0 | 0.00 | 0.01 | 0.01 | 94 | 1013.3 |
| 20260509123531 | 53 | 187 | 0.0 | 0.0 | 0.00 | 0.01 | 0.01 | 95 | 1013.5 |
| 20260509123027 | 52 | 187 | 0.0 | 0.0 | 0.00 | 0.01 | 0.01 | 95 | 1013.1 |
| 20260509122523 | 52 | 187 | 0.0 | 0.0 | 0.00 | 0.01 | 0.01 | 96 | 1013.1 |
| 20260509122021 | 52 | 187 | 0.0 | 0.0 | 0.00 | 0.01 | 0.01 | 96 | 1013.2 |
| 20260509121517 | 52 | 187 | 0.0 | 0.0 | 0.00 | 0.01 | 0.01 | 96 | 1013.3 |
| 20260509121015 | 52 | 187 | 0.0 | 0.0 | 0.00 | 0.01 | 0.01 | 96 | 1013.2 |
| 20260509120514 | 52 | 187 | 0.0 | 0.0 | 0.00 | 0.01 | 0.01 | 97 | 1013.3 |
| 20260509120011 | 52 | 187 | 0.0 | 0.0 | 0.00 | 0.01 | 0.01 | 97 | 1013.3 |
| 20260509115508 | 51 | 187 | 0.0 | 0.0 | 0.00 | 0.01 | 0.01 | 97 | 1013.4 |
| 20260509115006 | 51 | 187 | 0.0 | 0.0 | 0.00 | 0.01 | 0.01 | 97 | 1013.2 |
| 20260509114503 | 51 | 187 | 0.0 | 0.0 | 0.00 | 0.01 | 0.01 | 97 | 1013.1 |
| 20260509114002 | 51 | 187 | 0.0 | 0.0 | 0.00 | 0.01 | 0.01 | 97 | 1013.2 |
| 20260509113459 | 51 | 187 | 0.0 | 0.0 | 0.00 | 0.01 | 0.01 | 97 | 1013.2 |
| 20260509112957 | 51 | 187 | 0.0 | 0.0 | 0.00 | 0.01 | 0.01 | 97 | 1013.2 |
| 20260509112454 | 51 | 187 | 0.0 | 0.0 | 0.00 | 0.01 | 0.01 | 97 | 1013.4 |
| 20260509111950 | 51 | 187 | 0.0 | 0.0 | 0.00 | 0.01 | 0.01 | 97 | 1013.2 |
| 20260509111448 | 51 | 187 | 0.0 | 0.0 | 0.00 | 0.01 | 0.01 | 98 | 1013.1 |
| 20260509110945 | 51 | 187 | 0.0 | 0.0 | 0.00 | 0.01 | 0.01 | 98 | 1013.0 |
| 20260509110441 | 51 | 187 | 0.0 | 0.0 | 0.00 | 0.01 | 0.01 | 98 | 1013.0 |
| 20260509105939 | 51 | 187 | 0.0 | 0.0 | 0.00 | 0.01 | 0.01 | 98 | 1013.0 |
| 20260509105437 | 51 | 187 | 0.0 | 0.0 | 0.00 | 0.01 | 0.01 | 98 | 1013.0 |
| 20260509104934 | 51 | 187 | 0.0 | 0.0 | 0.00 | 0.01 | 0.01 | 97 | 1012.8 |
| 20260509104431 | 51 | 187 | 0.0 | 0.0 | 0.00 | 0.01 | 0.01 | 97 | 1012.8 |
| 20260509103928 | 51 | 187 | 0.0 | 0.0 | 0.00 | 0.01 | 0.01 | 97 | 1012.8 |
| 20260509103425 | 51 | 187 | 0.0 | 0.0 | 0.00 | 0.01 | 0.01 | 97 | 1012.9 |
| 20260509102924 | 51 | 187 | 0.0 | 0.0 | 0.00 | 0.01 | 0.01 | 97 | 1012.9 |
| 20260509102421 | 51 | 187 | 0.0 | 0.0 | 0.00 | 0.01 | 0.01 | 97 | 1012.8 |
| 20260509101916 | 51 | 187 | 0.0 | 0.0 | 0.00 | 0.01 | 0.01 | 97 | 1012.9 |
| 20260509101413 | 51 | 187 | 0.0 | 0.0 | 0.00 | 0.01 | 0.01 | 97 | 1012.8 |
| 20260509100911 | 51 | 187 | 0.0 | 0.0 | 0.00 | 0.01 | 0.01 | 96 | 1013.0 |
| 20260509100408 | 51 | 187 | 0.0 | 0.0 | 0.00 | 0.01 | 0.01 | 96 | 1013.0 |
| 20260509095904 | 51 | 187 | 0.0 | 0.0 | 0.00 | 0.01 | 0.01 | 96 | 1012.9 |
| 20260509095401 | 51 | 187 | 0.0 | 0.0 | 0.00 | 0.01 | 0.01 | 96 | 1012.7 |